Location: Barrio de Buenos Aires
(28.4500°N, 16.2667°W)
Time: 15:19:38
(UTC+00:00)

Cosmos 1356 Rocket - Pass Details

Date: 24 January 2020
Orbit: 543 x 598 km, 81.2° (Epoch: 26 February)

Event Time Altitude Azimuth Distance (km) Brightness Sun altitude
Rises 19:30:03 0° 8° (N) 2,734 6.6 -11.7°
Reaches altitude 10° 19:32:29 10° 21° (NNE) 1,845 5.7 -12.3°
Maximum altitude 19:35:56 26° 79° (E) 1,116 4.3 -13.0°
Drops below altitude 10° 19:39:25 10° 137° (SE) 1,864 5.7 -13.7°
Sets 19:41:53 0° 150° (SSE) 2,769 6.7 -14.2°
